Location: Aalen
(48.8330°N, 10.1000°E)
Time: 20:03:04
(UTC+02:00)

Vanguard 1 Rocket - All Passes

Search period start: 28 July 2021 00:00
Search period end: 07 August 2021 00:00
Orbit: 650 x 4226 km, 34.3° (Epoch: 27 July)

Date Brightness Start Highest point End Pass type
(mag) Time Alt. Az. Time Alt. Az. Time Alt. Az.
28 Jul - 11:18:33 10° SSW 11:31:10 24° SSE 11:39:19 10° ESE daylight
28 Jul - 13:46:08 10° SW 13:57:14 32° S 14:03:46 10° ESE daylight
28 Jul - 16:15:28 10° WSW 16:21:38 21° SSW 16:25:57 10° SSE daylight
29 Jul - 10:06:44 10° S 10:18:56 20° SSE 10:27:31 10° ESE daylight
29 Jul - 12:32:25 10° SW 12:45:41 32° S 12:53:28 10° ESE daylight
29 Jul - 15:01:49 10° WSW 15:10:57 29° SSW 15:16:33 10° SE daylight
29 Jul - 17:33:11 10° SW 17:34:25 11° SW 17:35:35 10° SSW daylight
30 Jul - 08:57:04 10° S 09:06:26 15° SE 09:13:58 10° ESE daylight
30 Jul - 11:18:57 10° SW 11:33:43 30° SSE 11:42:44 10° ESE daylight
30 Jul - 13:47:52 10° WSW 13:59:51 34° S 14:06:43 10° ESE daylight
30 Jul - 16:18:02 10° WSW 16:24:07 20° SSW 16:28:25 10° SSE daylight
31 Jul - 10:06:13 10° SSW 10:21:22 26° SSE 10:31:23 10° ESE daylight
31 Jul - 12:33:44 10° SW 12:48:17 36° S 12:56:31 10° ESE daylight
31 Jul - 15:04:00 10° WSW 15:13:30 29° SSW 15:19:17 10° SE daylight
01 Aug - 08:54:56 10° S 09:08:43 20° SSE 09:18:55 10° ESE daylight
01 Aug - 11:19:44 10° SW 11:36:13 35° SSE 11:45:55 10° ESE daylight
01 Aug - 13:49:43 10° WSW 14:02:25 36° S 14:09:35 10° SE daylight
01 Aug - 16:20:44 10° WSW 16:26:29 18° SW 16:30:40 10° S daylight
02 Aug - 07:46:34 10° SSE 07:56:01 14° SE 08:04:00 10° ESE daylight
02 Aug - 10:06:19 10° SSW 10:23:44 31° SSE 10:34:47 10° ESE daylight
02 Aug - 12:35:14 10° WSW 12:50:49 39° S 12:59:29 10° ESE daylight
02 Aug - 15:06:15 10° WSW 15:15:56 28° SSW 15:21:55 10° SSE daylight
03 Aug - 08:54:04 10° SSW 09:10:57 26° SSE 09:22:51 10° ESE daylight
03 Aug - 11:20:47 10° SW 11:38:41 39° S 11:48:57 10° ESE daylight
03 Aug - 13:51:40 10° WSW 14:04:54 37° SSW 14:12:22 10° SE daylight
03 Aug - 16:23:40 10° WSW 16:28:44 15° SW 16:32:36 10° S daylight
04 Aug - 07:43:43 10° S 07:58:03 19° SE 08:09:26 10° ESE daylight
04 Aug - 10:06:51 10° SW 10:26:04 36° SSE 10:37:58 10° ESE daylight
04 Aug - 12:36:51 10° WSW 12:53:17 42° S 13:02:20 10° ESE daylight
04 Aug - 15:08:34 10° W 15:18:17 26° SSW 15:24:22 10° SSE daylight
05 Aug - 06:37:44 10° SSE 06:45:16 12° SE 06:52:08 10° ESE daylight
05 Aug - 08:53:54 10° SSW 09:13:06 31° SSE 09:26:17 10° E daylight
05 Aug - 11:22:03 10° WSW 11:41:05 43° S 11:51:53 10° ESE daylight
05 Aug - 13:53:39 10° WSW 14:07:19 36° SSW 14:15:02 10° SE daylight
05 Aug - 16:27:03 10° WSW 16:30:52 13° SW 16:34:00 10° SSW daylight
06 Aug - 07:42:29 10° S 08:00:01 25° SE 08:13:32 10° E daylight
06 Aug - 10:07:42 10° SW 10:28:21 41° SSE 10:40:58 10° ESE daylight
06 Aug - 12:38:34 10° WSW 12:55:43 43° S 13:05:07 10° ESE daylight
06 Aug - 15:10:59 10° W 15:20:31 24° SW 15:26:39 10° SSE daylight
